Simultaneous Nadir Overpasses (SNOs) Predictions

Prediction of SNOs over PacNW region [( 10.00, 139.50) to ( 22.70, 165.60)] between NOAA-19 and NPP Satellites:

Table of predicted SNOs over PacNW region for the next 30.0 days since TLE Epoch: 3/21/2014
Index Date (NOAA-19) Time (NOAA-19) NOAA-19 Lat,Lon Date (NPP) Time (NPP) NPP Lat,Lon Distance(km) Time Diff (sec)
1 03/31/2014 03:48:58 19.94, 146.51 03/31/2014 03:49:45 18.84, 141.87 502.84 47
2 03/31/2014 16:25:33 11.04, 142.37 03/31/2014 16:22:13 11.86, 138.60 420.83 200
3 04/12/2014 15:50:50 22.58, 153.16 04/12/2014 15:53:55 23.83, 147.79 565.57 185
4 04/13/2014 03:07:10 22.69, 156.60 04/13/2014 03:06:41 21.78, 152.19 464.84 29
5 04/13/2014 15:43:17 10.05, 152.91 04/13/2014 15:39:40 7.09, 148.56 580.76 217
